Hourly Weather Allenwil

Today, 24 February, Wednesday

Time Temperature Precipitation Wind Pressure Humidity
00:00 +9°C° 0 mm 1 mps 725 mmHg 76%
01:00 +8°C° 0 mm 1 mps 725 mmHg 76%
02:00 +8°C° 0 mm 1 mps 725 mmHg 76%
03:00 +8°C° 0 mm 1 mps 725 mmHg 76%
04:00 +8°C° 0 mm 1 mps 725 mmHg 76%
05:00 +8°C° 0 mm 1 mps 725 mmHg 76%
06:00 +7°C° 0 mm 1 mps 725 mmHg 77%
07:00 +9°C° 0 mm 1 mps 725 mmHg 73%
08:00 +10°C° 0 mm 0 mps 725 mmHg 69%
09:00 +12°C° 0 mm 0 mps 725 mmHg 64%
10:00 +13°C° 0 mm 0 mps 725 mmHg 60%
11:00 +15°C° 0 mm 0 mps 725 mmHg 56%
12:00 +18°C° 0 mm 1 mps 725 mmHg 51%
13:00 +16°C° 0 mm 0 mps 724 mmHg 53%
14:00 +16°C° 0 mm 0 mps 724 mmHg 54%
15:00 +16°C° 0 mm 0 mps 723 mmHg 56%
16:00 +14°C° 0 mm 0 mps 723 mmHg 61%
17:00 +12°C° 0 mm 0 mps 723 mmHg 67%
18:00 +11°C° 0 mm 1 mps 723 mmHg 73%
19:00 +10°C° 0 mm 1 mps 723 mmHg 72%
20:00 +10°C° 0 mm 1 mps 723 mmHg 72%
21:00 +10°C° 0 mm 1 mps 723 mmHg 71%
22:00 +9°C° 0 mm 1 mps 723 mmHg 72%
23:00 +9°C° 0 mm 1 mps 722 mmHg 72%

Tomorrow, 25 February, Thursday

Time Temperature Precipitation Wind Pressure Humidity
00:00 +8°C° 0 mm 1 mps 722 mmHg 73%
01:00 +8°C° 0 mm 1 mps 722 mmHg 73%
02:00 +8°C° 0 mm 1 mps 722 mmHg 73%
03:00 +8°C° 0 mm 1 mps 722 mmHg 74%
04:00 +7°C° 0 mm 1 mps 722 mmHg 74%
05:00 +7°C° 0 mm 1 mps 722 mmHg 75%
06:00 +7°C° 0 mm 1 mps 722 mmHg 75%
07:00 +8°C° 0 mm 0 mps 722 mmHg 71%
08:00 +9°C° 0 mm 0 mps 722 mmHg 66%
09:00 +11°C° 0 mm 0 mps 722 mmHg 61%
10:00 +13°C° 0 mm 0 mps 722 mmHg 58%
11:00 +15°C° 0 mm 1 mps 722 mmHg 54%
12:00 +18°C° 0 mm 1 mps 722 mmHg 50%
13:00 +18°C° 0 mm 1 mps 722 mmHg 52%
14:00 +18°C° 0 mm 1 mps 721 mmHg 54%
15:00 +18°C° 0 mm 1 mps 721 mmHg 56%
16:00 +15°C° 0 mm 1 mps 721 mmHg 63%
17:00 +13°C° 0 mm 1 mps 721 mmHg 70%
18:00 +10°C° 0 mm 0 mps 721 mmHg 77%
19:00 +10°C° 0 mm 1 mps 722 mmHg 77%
20:00 +10°C° 0 mm 1 mps 722 mmHg 77%
21:00 +9°C° 0 mm 1 mps 722 mmHg 77%
22:00 +9°C° 0 mm 1 mps 722 mmHg 75%
23:00 +9°C° 0 mm 1 mps 722 mmHg 73%

Day after tomorrow, 26 February, Friday

Time Temperature Precipitation Wind Pressure Humidity
00:00 +8°C° 0 mm 1 mps 722 mmHg 72%
01:00 +8°C° 0 mm 1 mps 722 mmHg 71%
02:00 +8°C° 0 mm 1 mps 722 mmHg 71%
03:00 +7°C° 0 mm 1 mps 721 mmHg 71%
04:00 +7°C° 0 mm 1 mps 721 mmHg 72%
05:00 +7°C° 0 mm 1 mps 721 mmHg 72%
06:00 +7°C° 0 mm 1 mps 721 mmHg 73%
07:00 +7°C° 0 mm 0 mps 721 mmHg 69%
08:00 +9°C° 0 mm 0 mps 721 mmHg 65%
09:00 +10°C° 0 mm 0 mps 721 mmHg 62%
10:00 +12°C° 0 mm 0 mps 721 mmHg 59%
11:00 +13°C° 0 mm 0 mps 721 mmHg 56%
12:00 +14°C° 0 mm 0 mps 721 mmHg 53%
13:00 +15°C° 0 mm 1 mps 721 mmHg 55%
14:00 +14°C° 0 mm 1 mps 720 mmHg 58%
15:00 +14°C° 0 mm 1 mps 720 mmHg 60%
16:00 +13°C° 0 mm 1 mps 720 mmHg 67%
17:00 +11°C° 0 mm 1 mps 720 mmHg 74%
18:00 +10°C° 0 mm 1 mps 720 mmHg 81%
19:00 +9°C° 0 mm 1 mps 720 mmHg 84%
20:00 +9°C° 0 mm 1 mps 720 mmHg 87%
21:00 +8°C° 0 mm 1 mps 720 mmHg 90%
22:00 +8°C° 0 mm 1 mps 720 mmHg 91%
23:00 +8°C° 0 mm 1 mps 720 mmHg 93%

27 February, Saturday

Time Temperature Precipitation Wind Pressure Humidity
00:00 +6°C° 0 mm 2 mps 720 mmHg 94%
01:00 +7°C° 0 mm 2 mps 720 mmHg 93%
02:00 +7°C° 0 mm 2 mps 720 mmHg 92%
03:00 +7°C° 0 mm 3 mps 720 mmHg 91%
04:00 +7°C° 0 mm 3 mps 720 mmHg 91%
05:00 +7°C° 0 mm 3 mps 720 mmHg 91%
06:00 +7°C° 0 mm 3 mps 720 mmHg 90%
07:00 +7°C° 0.1 mm 3 mps 720 mmHg 90%
08:00 +7°C° 0.1 mm 3 mps 720 mmHg 89%
09:00 +5°C° 0.1 mm 4 mps 720 mmHg 89%
10:00 +6°C° 0 mm 4 mps 720 mmHg 86%
11:00 +6°C° 0 mm 4 mps 720 mmHg 83%
12:00 +6°C° 0 mm 5 mps 720 mmHg 81%
13:00 +7°C° 0 mm 5 mps 720 mmHg 78%
14:00 +7°C° 0 mm 5 mps 719 mmHg 75%
15:00 +7°C° 0 mm 5 mps 719 mmHg 72%
16:00 +7°C° 0 mm 5 mps 719 mmHg 72%
17:00 +6°C° 0 mm 4 mps 719 mmHg 72%
18:00 +5°C° 0 mm 4 mps 720 mmHg 73%
19:00 +4°C° 0 mm 4 mps 720 mmHg 75%
20:00 +4°C° 0 mm 3 mps 720 mmHg 77%
21:00 +3°C° 0 mm 3 mps 720 mmHg 79%
22:00 +2°C° 0 mm 3 mps 720 mmHg 81%
23:00 +3°C° 0 mm 2 mps 721 mmHg 84%

28 February, Sunday

Time Temperature Precipitation Wind Pressure Humidity
00:00 +2°C° 0 mm 2 mps 721 mmHg 87%
01:00 +3°C° 0 mm 1 mps 720 mmHg 88%
02:00 +3°C° 0 mm 1 mps 720 mmHg 89%
03:00 +2°C° 0 mm 1 mps 720 mmHg 90%
04:00 +2°C° 0 mm 1 mps 720 mmHg 91%
05:00 +2°C° 0 mm 1 mps 720 mmHg 91%
06:00 +2°C° 0 mm 1 mps 720 mmHg 92%
07:00 +4°C° 0 mm 1 mps 720 mmHg 86%
08:00 +5°C° 0 mm 1 mps 720 mmHg 80%
09:00 +7°C° 0 mm 1 mps 721 mmHg 75%
10:00 +8°C° 0 mm 1 mps 721 mmHg 71%
11:00 +9°C° 0 mm 1 mps 721 mmHg 67%
12:00 +10°C° 0 mm 2 mps 721 mmHg 63%
13:00 +10°C° 0 mm 2 mps 720 mmHg 65%
14:00 +10°C° 0 mm 2 mps 720 mmHg 66%
15:00 +10°C° 0 mm 2 mps 720 mmHg 68%
16:00 +8°C° 0 mm 2 mps 720 mmHg 75%
17:00 +6°C° 0 mm 2 mps 720 mmHg 83%
18:00 +4°C° 0 mm 2 mps 720 mmHg 90%
19:00 +5°C° 0 mm 1 mps 720 mmHg 91%
20:00 +5°C° 0 mm 1 mps 720 mmHg 91%
21:00 +4°C° 0 mm 1 mps 720 mmHg 91%
22:00 +4°C° 0 mm 1 mps 720 mmHg 91%
23:00 +4°C° 0 mm 1 mps 720 mmHg 90%

1 March, Monday

Time Temperature Precipitation Wind Pressure Humidity
00:00 +3°C° 0 mm 1 mps 720 mmHg 90%
01:00 +3°C° 0 mm 1 mps 720 mmHg 90%
02:00 +3°C° 0 mm 1 mps 720 mmHg 91%
03:00 +3°C° 0 mm 1 mps 720 mmHg 91%
04:00 +2°C° 0 mm 1 mps 720 mmHg 91%
05:00 +2°C° 0 mm 1 mps 720 mmHg 91%
06:00 +1°C° 0 mm 0 mps 720 mmHg 92%
07:00 +4°C° 0 mm 1 mps 720 mmHg 86%
08:00 +6°C° 0 mm 1 mps 721 mmHg 80%
09:00 +7°C° 0 mm 1 mps 721 mmHg 74%
10:00 +9°C° 0 mm 1 mps 721 mmHg 69%
11:00 +10°C° 0 mm 1 mps 721 mmHg 65%
12:00 +12°C° 0 mm 1 mps 721 mmHg 61%
13:00 +12°C° 0 mm 1 mps 721 mmHg 61%
14:00 +12°C° 0 mm 1 mps 721 mmHg 62%
15:00 +12°C° 0 mm 1 mps 721 mmHg 62%
16:00 +10°C° 0 mm 1 mps 721 mmHg 71%
17:00 +9°C° 0 mm 1 mps 721 mmHg 79%
18:00 +7°C° 0 mm 1 mps 721 mmHg 87%
19:00 +6°C° 0 mm 1 mps 721 mmHg 86%
20:00 +6°C° 0 mm 1 mps 721 mmHg 86%
21:00 +5°C° 0 mm 0 mps 721 mmHg 85%
22:00 +4°C° 0 mm 0 mps 722 mmHg 84%
23:00 +4°C° 0 mm 0 mps 722 mmHg 83%
Show more